Regional Weather Roundup
Issued by NWS State College, PA

Home | Current Version | Previous Version | Text Only | Print | Product List | Glossary Off
Versions: 1 2 3 4 5 6 7 8 9 10 11 12 13 14 15 16 17 18 19 20 21 22 23 24 25 26 27 28 29 30 31 32 33 34 35 36 37 38 39 40 41 42 43 44 45 46 47 48 49 50

000
ASUS41 KCTP 231610
RWRCTP

REGIONAL WEATHER ROUNDUP
NATIONAL WEATHER SERVICE STATE COLLEGE PA
1200 PM EDT FRI JUN 23 2017

Note: "fair" indicates few or no clouds below 12,000 feet with no
significant weather and/or obstructions to visibility.

* = STATION THAT DOES NOT REPORT PRECIPITATION /E.G. RAIN...SNOW...ETC/
    THUNDER OR FOG.

PAZ002>004-007>009-013>016-020>023-029>032-231700-
WESTERN PENNSYLVANIA

CITY           SKY/WX    TMP DP  RH WIND       PRES   REMARKS
ERIE           CLOUDY    73  70  90 S15       29.63F
MEADVILLE      LGT RAIN  71  71 100 SW10G20   29.68S FOG
FRANKLIN*      CLOUDY    70  66  88 SW12G20   29.71F
NEW CASTLE     NOT AVBL
BEAVER COUNTY  CLOUDY    73  72  94 SW13G21   29.73F
BUTLER*        CLOUDY    73  70  88 SW10      29.73F
PITTSBURGH INT LGT RAIN  74  72  93 SW12      29.73F
PITTSBURGH     RAIN      73  69  87 SW14      29.75F
INDIANA*       CLOUDY    72  72 100 W10       29.79S
LATROBE        CLOUDY    73  73 100 SW12      29.78
WASHINGTON CO* CLOUDY    72  70  94 SW10      29.78F
$$

PAZ004>006-010>012-017>019-024>028-033>037-041-042-045-046-049>053-231700-
CENTRAL PENNSYLVANIA

CITY           SKY/WX    TMP DP  RH WIND       PRES   REMARKS
BRADFORD       CLOUDY    69  68  96 SW10      29.73F
DUBOIS         CLOUDY    69  67  93 SW13G18   29.74F FOG
CLEARFIELD     CLOUDY    71  69  93 SW6       29.75F
JOHNSTOWN      CLOUDY    71  69  93 SW13G21   29.81F
ALTOONA        LGT RAIN  73  72  96 SW10      29.79F FOG
STATE COLLEGE  LGT RAIN  73  70  88 SW9       29.76F
WILLIAMSPORT   CLOUDY    76  70  82 S9        29.70F
SELINSGROVE    CLOUDY    73  71  93 SW6       29.74F
FT INDIANTOWN  CLOUDY    73  73 100 SW8       29.75F
CAPITAL CITY   CLOUDY    78  71  79 SW9       29.75F
HARRISBURG     CLOUDY    79  72  79 SW9       29.75F
YORK           CLOUDY    80  73  79 SW10      29.77F
$$

PAZ038>040-043-044-047-048-054-055-060>062-067>071-231700-
EASTERN PENNSYLVANIA

CITY           SKY/WX    TMP DP  RH WIND       PRES   REMARKS
SCRANTON       CLOUDY    78  67  68 S10G20    29.73F
MOUNT POCONO   LGT RAIN  71  68  90 S12       29.80F
ALLENTOWN      LGT RAIN  74  70  87 SW5       29.76S
QUAKERTOWN*    CLOUDY    73  72  94 S12G18    29.78F
READING        CLOUDY    78  74  87 SW14G22   29.74F
LANCASTER      PTSUNNY   82  74  76 SW13      29.76F
COATESVILLE    CLOUDY    75  72  88 SW9       29.80F
POTTSTOWN      CLOUDY    75  72  90 S12G17    29.78F
BLUE BELL      CLOUDY    73  70  88 SW12G18   29.79F
DOYLESTOWN     CLOUDY    75  71  87 S10       29.77F
WILLOW GROVE   NOT AVBL
NORTH PHILA    CLOUDY    77  71  82 SW17G26   29.79F
PHILADELPHIA   CLOUDY    75  71  87 SW13      29.79F
$$




USA.gov is the U.S. government's official web portal to all federal, state and local government web resources and services.